Location: Cahas Mountain Overlook
(37.0833°N, 80.1000°W)
Time: 17:12:45
(UTC-04:00)

ESTCUBE 1 - Visible Passes

Search period start: 30 March 2023 00:00
Search period end: 09 April 2023 00:00
Orbit: 642 x 654 km, 97.9° (Epoch: 30 March)

Date Brightness Start Highest point End Pass type
(mag) Time Alt. Az. Time Alt. Az. Time Alt. Az.
31 Mar ? 22:57:15 10° N 22:57:15 10° N 22:57:17 10° N visible
01 Apr ? 23:23:28 10° N 23:23:28 10° N 23:23:30 10° N visible
03 Apr ? 22:38:07 11° NNE 22:38:07 11° NNE 22:38:19 10° NNE visible
04 Apr ? 23:04:19 13° N 23:04:19 13° N 23:04:46 10° N visible
05 Apr ? 23:30:30 12° NNW 23:30:30 12° NNW 23:30:50 10° NNW visible
06 Apr ? 22:18:57 10° NNE 22:18:57 10° NNE 22:18:59 10° NNE visible
07 Apr ? 22:45:07 14° NNE 22:45:07 14° NNE 22:45:47 10° N visible
08 Apr ? 23:11:17 15° N 23:11:17 15° N 23:12:05 10° N visible
